RH
18 18 19 20 20 21 22 23 24 26 27 28 29 30 30 29 30 31 29 29 28 28 29 29 29 32 37 40 39 39 39 38 35 32 31 31 31 32 34 35 33 31 29 27 25 24 22 21 18 16 14 12 11 10 10 11 11 12 12 13 14 14 15 16 16 16 16 15 15 15 15 15 16 17 18 19 22 25 29 32 35 38 40 41 43 43
20 22 23 24 26 27 29 30 31 32 33 33 33 32 32 30 31 31 30 30 29 27 28 27 28 32 40 45 44 44 46 43 39 37 35 34 35 38 38 35 33 30 28 25 23 21 18 16 14 12 11 11 11 11 11 11 11 11 12 12 12 12 12 13 14 15 16 16 16 16 15 15 14 14 15 15 15 16 17 19 22 25 27 30 33 36
24 25 27 30 32 33 34 35 35 35 35 36 35 35 35 34 33 34 34 34 33 33 32 30 30 34 42 49 49 50 51 46 43 42 41 41 41 39 35 31 30 28 26 23 21 18 16 14 13 12 13 13 13 13 13 13 13 13 12 12 11 11 11 11 11 11 12 13 14 15 15 15 15 14 14 14 14 15 14 14 15 16 18 20 22 24
29 30 32 34 35 35 36 37 37 38 38 38 39 38 37 36 35 35 36 36 35 36 36 34 33 35 41 49 54 57 54 48 48 48 45 44 42 38 34 32 30 28 26 23 20 18 17 16 15 15 15 15 15 15 14 14 13 13 12 11 10 9 9 9 9 9 9 9 10 11 12 13 14 14 14 14 15 15 15 15 14 14 14 15 16 17
33 34 35 35 36 37 37 38 40 40 40 40 39 37 36 36 36 36 36 36 36 36 37 35 33 34 38 46 52 53 49 47 48 46 44 44 43 41 40 38 36 33 29 25 23 21 20 19 18 18 19 18 17 15 14 12 11 10 9 9 8 7 7 7 7 7 7 7 7 8 9 9 11 12 12 12 12 13 14 14 15 14 14 13 14 15
35 35 35 35 35 35 36 36 36 37 37 37 37 37 37 37 38 38 36 35 35 36 35 32 30 27 30 38 44 42 40 41 42 42 44 44 42 42 42 41 39 35 31 27 24 22 21 20 20 20 20 18 16 14 12 10 9 8 7 6 5 5 5 5 5 5 5 5 5 6 6 6 7 8 9 10 10 10 11 12 13 13 13 13 13 13
34 33 32 32 32 32 33 33 35 36 37 37 37 37 38 38 38 39 37 35 35 38 38 36 31 25 28 38 42 40 40 39 39 41 41 40 40 41 41 40 37 32 28 25 22 22 22 22 22 20 19 16 13 11 8 7 6 5 5 4 4 3 3 3 3 3 4 4 4 4 5 5 5 6 6 7 8 8 8 9 10 11 11 12 12 13
31 31 31 32 32 33 34 36 39 39 39 40 40 40 40 41 41 41 41 40 40 45 51 50 40 28 31 42 41 40 41 37 35 37 37 39 40 39 37 35 33 28 24 22 22 22 22 21 19 17 15 13 11 8 7 5 4 4 4 3 3 3 3 3 3 3 3 3 3 3 3 4 4 4 5 5 6 6 6 7 8 9 9 10 10 11
31 32 35 36 37 38 39 39 41 41 42 42 43 44 44 45 47 47 46 48 49 56 67 66 48 29 29 40 40 38 37 32 31 33 35 36 34 31 30 29 27 23 19 18 17 16 15 14 12 11 10 9 8 6 5 5 4 4 4 3 3 3 3 3 2 2 2 2 2 3 3 3 3 3 3 4 4 4 5 5 6 7 7 8 9 10
35 37 39 41 42 43 42 42 44 45 46 47 48 49 50 50 52 51 49 47 47 55 70 71 51 31 28 33 36 35 30 25 25 26 26 24 23 21 21 19 16 14 13 12 11 10 9 8 7 6 6 5 5 5 5 5 4 4 3 3 3 3 3 3 2 2 2 2 2 2 2 2 2 3 3 3 3 3 4 4 4 5 6 6 7 8
41 42 44 46 46 46 47 49 51 52 52 52 51 50 51 50 49 48 44 39 39 48 66 72 55 43 41 36 29 27 24 21 20 19 18 18 18 18 16 14 11 9 8 7 7 7 6 5 5 4 4 4 3 4 4 3 3 3 3 3 3 3 3 3 3 3 2 3 2 2 3 2 2 2 2 2 3 3 3 4 4 4 5 5 6 6
42 43 45 49 50 49 51 52 53 54 53 51 48 45 44 43 43 44 42 38 38 45 61 66 49 42 50 42 28 25 24 24 23 21 19 18 17 16 14 11 8 6 6 5 5 5 4 4 4 4 3 3 3 3 3 3 3 3 3 3 3 3 3 3 3 3 3 3 3 2 2 2 2 2 2 2 2 3 3 3 3 3 4 4 5 5
42 44 45 50 51 48 48 48 49 48 47 47 45 42 39 36 35 36 35 33 32 38 55 62 49 45 54 47 32 29 29 25 23 20 18 16 13 11 9 7 5 4 4 3 3 3 3 3 2 3 3 2 3 2 2 2 2 2 2 2 2 2 2 2 2 2 2 2 2 2 2 2 2 2 2 3 2 3 3 3 3 3 3 4 4 5
45 46 46 47 46 44 42 42 42 41 41 44 45 42 37 31 29 29 28 24 20 26 42 53 51 51 54 44 29 26 23 19 17 16 13 11 9 7 5 4 3 3 3 3 2 2 2 2 2 2 2 2 2 2 2 2 2 2 2 2 2 2 2 2 2 2 2 2 2 2 2 2 2 2 2 2 2 3 3 2 3 3 3 3 3 4
46 46 47 48 46 45 43 42 43 43 42 44 46 45 40 36 34 32 30 26 21 21 27 33 39 47 50 37 23 19 18 16 14 11 8 7 6 5 4 4 4 3 3 3 2 2 2 2 2 2 1 2 2 1 2 2 2 2 2 2 2 2 2 1 2 2 1 2 2 2 2 2 2 2 1 2 2 2 2 2 3 3 3 3 3 3
50 48 47 50 50 48 48 49 52 51 48 48 51 49 44 41 41 40 38 35 30 23 20 25 34 51 58 41 22 17 15 13 11 7 6 5 5 5 4 4 4 3 3 3 2 2 2 2 2 2 1 1 1 1 2 2 2 2 2 2 2 1 2 1 1 2 1 2 2 1 2 2 2 2 2 2 2 2 2 2 2 2 3 3 2 3
60 58 54 55 58 56 53 53 55 58 59 58 60 57 49 45 47 46 35 29 28 21 18 24 31 50 59 37 18 16 14 11 9 5 5 4 3 4 4 3 3 2 2 2 2 2 2 2 2 2 2 1 2 1 1 2 1 2 2 2 2 2 1 2 1 2 2 2 2 2 2 2 2 1 2 2 2 2 2 2 2 2 2 2 2 2
64 68 65 62 62 60 57 55 54 59 65 65 63 61 56 46 44 45 33 21 19 15 15 19 24 44 51 27 14 17 14 11 7 4 4 3 3 3 3 3 2 2 2 2 2 2 2 2 2 2 2 1 2 2 2 2 1 2 2 1 2 2 1 2 1 1 2 2 2 2 2 2 2 2 2 2 2 2 2 2 2 2 2 2 2 2
64 67 66 63 62 60 58 57 53 53 60 63 58 55 56 47 39 45 42 27 18 13 13 13 19 43 46 21 14 18 12 9 5 3 4 2 3 3 2 3 2 1 3 2 2 2 2 2 2 2 2 1 2 2 1 2 2 2 2 1 2 2 1 2 1 1 2 2 2 2 2 2 2 2 2 2 2 2 2 2 2 2 2 2 2 2
62 63 64 63 62 59 57 59 56 53 56 62 56 49 51 46 36 41 44 34 22 15 13 7 14 41 41 17 15 17 9 7 4 3 4 3 4 4 2 3 2 2 3 2 2 2 2 2 2 1 2 1 2 2 2 2 2 2 1 1 2 1 2 1 1 2 1 1 2 1 2 2 2 2 2 2 2 2 2 2 2 2 2 2 2 2
59 59 60 61 62 61 60 64 66 64 64 66 58 45 43 38 29 31 36 34 30 24 16 7 12 36 36 17 14 14 7 6 4 3 4 3 4 3 2 3 2 2 2 2 2 2 2 2 2 2 2 1 2 1 2 2 1 2 1 1 2 1 2 1 1 2 1 2 2 1 2 2 2 2 2 2 2 2 2 2 2 2 2 2 2 2
56 55 56 58 60 62 64 69 74 75 71 67 57 41 35 32 25 24 24 25 30 32 24 13 14 31 34 20 15 13 7 5 4 3 4 4 4 3 2 3 2 2 2 2 2 2 2 2 2 2 1 2 2 1 2 2 1 2 1 1 2 1 1 2 1 2 1 2 1 1 2 1 2 2 2 2 2 2 2 2 2 2 2 2 2 2
54 52 54 55 57 59 61 64 69 70 63 56 50 42 38 35 29 26 22 18 24 33 30 17 15 27 30 21 14 10 6 4 4 4 4 4 4 3 3 3 2 2 2 2 2 2 2 2 2 2 2 1 2 1 2 2 2 2 2 1 2 1 1 1 1 2 1 2 2 2 2 1 2 2 2 2 2 2 2 2 2 2 2 2 2 2
53 50 50 52 54 57 59 59 62 66 63 54 47 42 39 37 31 27 24 19 23 35 35 21 14 21 23 16 10 7 5 4 4 4 5 5 3 2 3 3 2 2 2 2 2 2 2 2 1 1 2 1 2 2 2 2 2 2 2 2 2 1 2 1 1 2 1 1 2 1 2 2 2 2 2 2 2 2 2 2 2 2 2 2 2 2
55 51 47 45 47 49 50 52 55 62 64 58 48 40 35 33 31 27 22 19 20 30 36 26 15 16 17 11 7 6 4 4 4 5 6 4 3 2 2 2 2 2 2 2 2 2 1 2 1 1 1 1 1 2 2 2 2 2 2 2 2 2 2 1 2 2 2 2 2 2 2 2 2 2 2 2 2 2 2 2 2 2 2 2 2 2
59 56 50 44 42 41 41 44 48 53 57 57 50 43 35 29 31 30 22 17 18 22 30 30 19 13 11 8 6 5 3 4 3 4 5 3 2 2 2 2 2 2 2 2 2 2 1 1 1 1 1 2 2 2 2 2 2 2 2 1 2 2 2 2 2 2 2 2 2 2 2 2 2 2 2 2 2 2 2 2 2 2 2 2 2 2
63 60 56 50 44 43 44 46 51 54 55 55 53 49 41 31 32 35 25 18 20 18 20 25 20 12 9 7 5 4 3 3 3 3 4 3 2 2 2 2 2 2 2 2 2 2 2 2 2 2 1 2 2 1 2 2 2 1 2 1 2 2 2 2 2 2 3 2 2 3 2 2 2 2 2 2 2 2 2 2 2 2 2 2 2 2
66 64 62 59 54 51 50 49 54 60 60 58 57 57 51 37 32 35 28 21 22 19 14 16 16 11 8 5 5 5 3 2 3 3 3 2 2 2 2 2 2 2 2 2 2 2 2 2 2 2 2 1 2 2 1 2 2 2 2 2 2 2 2 2 3 3 3 3 3 3 3 3 2 2 2 2 2 2 2 2 2 2 2 2 2 2
67 65 64 64 61 57 54 51 54 62 65 62 61 64 62 48 34 32 28 22 24 23 17 15 14 11 8 5 5 4 2 2 2 3 3 2 2 2 2 2 2 2 2 2 2 2 2 2 2 2 2 2 2 2 1 2 2 2 2 2 2 2 2 2 3 3 3 3 3 3 3 3 3 3 3 3 3 3 2 2 2 2 2 2 2 3
67 63 61 62 62 58 56 53 53 59 63 61 61 63 61 50 38 32 26 20 21 23 21 18 15 12 10 7 5 3 2 2 2 3 4 3 2 2 2 2 2 2 2 2 2 2 1 2 2 2 2 2 2 2 2 2 2 2 2 2 2 3 3 3 3 3 3 3 3 3 4 4 4 4 4 3 4 4 3 3 3 3 3 3 3 3
69 63 58 59 61 58 52 49 49 54 58 55 54 53 49 45 42 36 27 20 16 15 15 15 13 11 8 6 5 4 2 2 2 2 3 3 3 2 2 2 2 2 2 2 2 2 2 2 2 2 2 2 2 2 2 2 2 2 2 2 2 2 3 3 3 3 3 3 3 4 4 4 4 4 4 4 4 4 4 4 4 4 4 4 4 3
74 66 57 53 54 52 47 43 43 47 50 48 45 43 40 40 42 38 28 23 19 13 11 12 10 8 6 4 5 4 2 2 2 2 2 3 3 2 2 2 2 2 2 2 2 2 2 2 2 2 2 2 2 2 2 2 2 2 2 2 2 2 2 3 3 3 3 3 3 3 3 4 4 4 4 4 4 4 4 4 4 4 4 4 4 4
78 69 58 50 47 45 42 40 40 42 44 44 42 41 38 34 35 34 24 19 21 18 14 13 10 7 5 4 4 4 3 2 2 2 2 2 2 2 2 1 2 2 2 2 2 2 2 2 2 2 2 2 2 2 2 2 2 2 2 2 2 2 2 2 2 3 3 3 3 3 3 3 4 4 4 3 3 4 3 3 4 4 4 4 4 4
84 74 61 51 46 42 38 37 37 39 40 40 39 39 35 29 29 32 26 17 17 19 16 13 10 6 6 5 4 5 4 2 2 3 2 2 2 2 2 2 2 2 2 2 2 2 2 2 2 2 2 2 2 2 2 2 2 2 2 3 3 3 2 2 2 2 3 3 3 4 3 3 4 3 3 3 3 3 3 3 4 3 3 4 4 4
89 80 65 53 46 40 36 33 33 34 35 37 36 34 33 29 27 30 30 22 17 16 13 10 8 7 6 5 4 5 5 3 2 3 2 2 2 2 2 2 2 2 2 2 2 2 2 2 2 2 2 2 2 2 2 2 2 2 3 2 3 3 3 3 3 2 3 3 3 3 3 3 4 3 3 3 3 3 3 3 3 3 3 3 3 3
92 85 71 56 47 40 35 32 32 31 31 32 32 31 31 28 22 20 22 20 16 13 11 9 8 7 5 4 4 5 5 5 3 3 3 2 2 2 2 2 2 2 2 2 2 2 2 2 2 3 3 2 3 3 3 3 3 3 3 3 3 3 3 3 3 3 3 3 3 3 3 3 3 3 3 4 3 3 3 3 3 3 3 3 3 2
96 93 81 63 51 42 35 31 30 29 29 29 30 31 29 25 21 18 17 16 14 12 11 9 7 6 4 3 3 3 5 6 5 4 4 3 2 2 2 2 2 2 2 2 2 2 2 3 3 3 3 3 3 3 3 3 3 3 3 3 3 3 3 3 3 3 3 3 3 3 3 3 3 3 3 3 3 3 3 3 3 3 3 3 3 2
100 99 92 75 58 47 37 31 28 26 27 27 28 30 30 28 24 20 17 15 14 12 10 8 6 5 4 3 3 3 4 6 6 5 4 3 2 2 2 2 2 2 2 2 2 2 2 3 3 3 3 3 3 3 3 3 3 3 3 3 3 3 3 3 3 3 3 3 3 3 3 3 3 3 3 3 3 3 3 3 3 3 3 3 2 2
101 101 98 84 66 52 41 33 28 26 25 26 27 29 30 29 25 20 17 15 13 11 8 6 5 4 4 3 3 3 3 4 5 5 4 4 3 2 2 2 2 2 2 2 2 2 2 2 3 3 3 3 3 3 3 3 3 3 3 3 3 3 3 3 2 3 2 3 3 3 3 3 3 3 3 3 3 3 3 3 3 3 3 2 2 2
103 102 102 94 75 57 46 37 30 27 26 26 26 26 28 28 26 20 15 11 10 8 7 6 5 5 4 3 3 3 3 3 4 5 5 4 4 3 2 2 2 2 2 2 2 2 2 2 2 2 3 3 3 3 3 2 3 3 3 3 3 3 3 3 2 2 3 3 3 3 3 3 3 3 3 3 3 3 3 3 3 2 2 2 2 3
106 103 103 102 88 65 49 40 32 28 26 26 26 26 25 25 23 19 13 10 8 7 7 6 5 5 4 4 3 3 3 3 4 4 4 4 4 3 2 2 2 2 2 2 2 2 2 2 2 2 2 3 3 3 3 3 3 3 3 3 3 3 3 3 2 3 2 2 2 2 2 3 3 3 3 3 3 3 3 3 3 3 3 3 3 3
105 102 100 104 97 76 55 43 34 28 25 25 26 25 23 21 20 17 13 11 9 7 7 6 5 5 4 4 3 3 3 4 4 4 4 4 4 3 2 2 3 2 2 3 2 2 2 2 2 2 2 2 2 2 2 3 3 3 3 3 3 3 2 2 2 2 2 2 2 2 3 3 3 3 3 3 3 3 3 3 3 3 3 3 3 3
103 103 101 102 99 83 62 47 37 30 26 24 23 24 23 21 19 17 14 12 10 8 6 6 5 4 4 4 3 3 4 4 4 4 4 4 4 3 3 2 3 2 2 3 2 2 2 2 2 2 2 2 2 2 2 3 2 2 2 3 3 3 2 2 2 2 2 2 2 2 3 3 3 3 2 2 3 3 3 3 3 3 3 3 3 3
101 104 104 103 101 90 72 55 41 31 26 23 22 22 22 22 20 18 15 13 12 9 7 5 5 5 4 4 4 3 3 4 4 4 4 4 4 4 3 3 2 2 2 2 2 2 2 2 2 2 2 2 2 2 2 2 2 2 3 2 3 3 2 2 2 2 2 2 2 3 3 3 3 3 2 2 3 3 3 3 3 3 3 3 3 3
102 103 101 102 104 96 79 62 46 33 26 23 21 21 21 20 19 18 15 13 13 11 8 5 5 5 4 4 4 3 3 4 4 4 4 4 4 4 3 3 2 2 2 2 2 2 2 2 2 2 2 2 2 2 3 2 2 3 2 2 3 2 2 2 2 2 2 2 2 3 2 3 3 3 3 3 3 3 3 3 3 3 3 3 3 2
104 104 102 105 107 101 87 71 53 37 26 22 20 19 20 20 19 18 16 14 13 12 9 6 5 4 4 4 4 3 3 4 4 4 4 4 4 4 3 3 2 2 2 2 2 2 2 2 2 2 2 2 2 2 2 2 3 3 2 3 2 2 2 2 2 2 2 2 2 2 2 3 3 2 3 3 3 3 3 3 3 3 3 3 2 2
105 105 105 106 107 104 97 83 63 44 29 22 20 19 19 20 20 18 16 14 12 12 10 7 5 4 4 4 4 3 3 4 4 4 4 4 4 4 3 3 2 2 2 2 2 2 2 2 2 2 2 2 2 2 2 2 2 2 2 2 2 2 2 2 2 2 2 2 2 2 2 3 3 3 3 3 3 3 3 3 3 3 3 3 2 2
105 103 105 107 109 106 96 81 66 51 35 24 21 20 19 19 19 18 16 14 12 11 10 7 6 5 4 4 4 3 4 4 4 4 4 4 4 4 3 3 2 2 2 2 2 2 2 2 2 2 2 2 2 2 2 2 2 3 2 2 2 2 3 2 2 2 2 2 2 2 2 3 3 3 3 3 3 3 3 3 3 3 3 3 3 2
102 102 103 105 108 106 93 75 61 50 37 26 21 19 18 18 18 17 16 13 11 10 9 7 6 5 4 4 4 3 4 4 4 4 4 4 4 4 3 3 2 2 2 2 2 2 2 2 2 2 2 3 2 2 2 2 2 2 2 2 3 3 3 2 2 2 2 2 2 2 3 3 3 3 3 3 3 3 3 3 3 3 3 3 2 2
106 106 104 104 106 104 92 73 57 45 35 26 20 18 17 16 16 16 14 12 11 10 9 7 5 4 4 4 4 3 4 4 4 4 4 4 4 4 4 3 2 2 2 2 2 2 2 2 2 2 2 3 2 2 3 3 2 3 3 3 3 3 2 2 2 2 2 2 2 3 3 3 3 3 3 3 3 3 3 3 3 3 3 3 2 2
104 103 103 105 105 101 90 73 58 46 36 26 20 17 16 15 15 14 13 12 11 10 9 7 5 4 4 4 4 4 3 3 4 4 4 4 4 4 4 3 3 2 2 2 2 2 2 2 2 2 3 2 2 3 3 3 3 3 3 3 3 2 2 2 2 2 2 2 3 3 3 3 4 3 3 3 3 3 3 3 3 3 3 2 2 2
Wind_Speed
51 51 52 52 53 54 55 56 57 58 60 60 60 61 62 62 63 66 67 68 69 70 72 73 75 77 79 81 83 85 87 89 90 91 92 93 95 96 98 99 100 101 102 103 103 104 105 105 105 104 102 101 100 99 98 98 98 100 101 102 103 105 108 110 112 114 116 118 119 120 122 123 123 123 124 124 125 125 126 127 127 127 127 127 126 126
48 49 51 52 54 55 56 57 57 57 58 58 58 59 60 61 61 64 66 67 69 69 70 72 73 75 78 80 83 85 88 89 91 92 93 94 96 97 99 100 101 102 103 104 104 104 104 104 103 102 101 99 99 98 97 97 97 98 99 100 100 101 103 105 107 109 112 114 117 118 120 121 122 122 123 123 123 124 124 125 126 127 128 128 128 128
49 50 52 53 54 55 55 55 56 56 56 57 58 58 59 60 60 61 64 66 68 69 70 71 72 75 77 80 83 86 89 90 92 93 95 97 99 100 101 102 103 104 104 105 105 105 104 103 102 101 101 100 100 99 99 99 98 98 99 99 100 100 101 102 104 105 107 109 112 115 117 119 121 121 122 122 122 122 123 123 123 124 125 126 127 128
50 50 51 51 52 52 52 54 55 56 57 57 58 58 59 60 61 60 62 64 67 69 70 71 71 74 77 78 82 86 89 91 93 95 97 99 101 102 103 104 106 106 107 107 107 106 105 105 104 103 104 104 104 103 102 102 101 101 101 101 101 101 101 102 103 105 106 107 109 111 114 116 118 120 121 121 121 121 122 122 122 122 123 124 125 126
49 49 49 49 50 51 52 53 55 56 57 57 58 59 59 61 63 64 63 64 67 69 71 72 70 71 75 77 79 84 88 90 92 95 97 98 100 102 104 106 108 109 109 109 109 108 107 107 107 106 108 108 108 107 106 105 103 103 102 102 102 102 102 103 104 105 106 107 108 110 111 113 116 118 119 120 120 120 120 121 122 122 122 123 123 124
48 49 49 50 51 52 53 54 55 56 56 57 58 60 61 62 64 66 66 66 68 70 72 74 73 71 73 78 80 82 86 88 90 92 94 96 97 99 102 104 106 108 108 108 107 106 105 106 106 106 108 109 108 107 106 106 105 105 104 103 103 103 103 103 103 104 106 107 107 108 110 112 113 115 117 118 119 120 119 119 120 121 122 122 122 123
50 51 53 54 54 55 55 56 57 58 59 60 61 62 64 66 66 68 69 69 70 73 75 77 78 75 75 81 83 83 87 89 89 91 93 94 96 97 99 100 102 104 104 104 103 102 102 103 103 104 105 107 107 106 105 105 104 104 104 104 102 102 102 102 102 102 104 105 105 106 108 110 111 113 114 116 118 119 118 118 119 119 120 121 121 122
54 55 57 58 59 58 58 59 60 61 62 63 64 65 67 69 70 71 72 73 74 76 80 81 82 78 77 83 87 85 88 90 90 91 93 94 95 96 97 99 101 102 101 99 98 97 98 99 100 101 103 105 107 106 106 106 105 103 103 103 102 101 100 100 101 100 100 101 102 104 106 108 109 110 112 113 115 117 117 117 117 118 119 119 119 120
59 60 61 62 62 62 61 62 63 64 64 65 67 68 70 71 73 74 74 76 77 78 81 84 86 83 78 82 88 88 89 90 89 90 92 93 94 94 94 96 98 98 95 92 91 90 91 93 95 97 100 102 104 105 106 106 106 105 104 103 102 102 101 100 99 97 97 97 98 100 103 105 106 107 109 110 112 113 114 115 115 116 116 117 117 118
62 62 63 63 64 64 64 65 66 67 68 69 70 71 72 73 74 74 74 75 76 77 80 84 87 89 84 83 87 90 90 90 88 88 89 90 90 91 91 92 93 91 87 84 85 86 88 91 93 97 99 99 99 101 104 105 105 105 104 104 103 103 101 100 98 96 94 94 95 96 98 100 101 102 104 105 107 108 110 111 112 113 113 114 115 116
64 64 65 65 65 66 67 68 69 70 71 71 72 72 72 73 74 75 75 74 74 75 79 82 84 88 89 86 85 88 90 89 88 88 88 87 88 88 89 91 90 86 82 81 82 84 88 92 94 97 98 98 96 98 100 102 102 103 102 102 103 102 101 100 98 97 96 96 95 94 94 95 96 96 97 98 99 101 104 106 107 108 110 111 112 113
67 67 67 68 69 69 69 70 71 71 72 73 73 73 72 72 74 75 75 75 75 75 77 80 81 84 89 88 85 85 87 87 87 87 85 83 83 85 87 89 87 82 79 79 81 84 87 91 94 95 95 96 97 97 97 97 98 99 99 99 99 99 100 99 97 96 96 97 96 94 93 92 92 91 91 92 93 94 96 98 101 103 104 106 108 110
69 69 69 70 70 71 71 71 72 73 74 75 76 76 75 73 72 73 74 72 71 73 76 81 82 82 85 87 85 83 84 84 84 83 81 80 80 82 85 85 82 79 77 78 81 83 84 86 88 89 90 92 93 93 93 93 94 94 95 95 94 94 94 93 92 91 90 91 92 92 91 89 88 87 86 87 89 90 90 91 94 97 98 100 102 105
70 70 70 71 71 72 72 73 74 75 76 78 79 79 80 79 77 75 75 73 70 70 75 81 84 85 87 87 83 81 81 80 80 79 77 77 79 79 80 79 78 78 79 81 83 83 82 82 83 84 84 84 85 85 85 85 86 87 88 90 89 89 88 87 86 84 83 83 84 85 86 86 85 83 82 82 84 86 87 88 89 91 93 94 96 99
72 72 72 73 74 75 75 76 77 78 79 80 81 83 84 84 83 81 82 81 77 74 74 79 84 89 93 91 85 82 81 80 80 77 74 76 78 78 78 79 79 79 81 82 84 83 83 83 83 81 80 79 78 76 76 77 78 78 79 81 81 81 80 80 79 78 78 78 78 79 79 80 81 80 79 78 79 81 83 84 86 87 89 91 92 93
76 77 76 76 77 78 78 79 80 81 82 82 83 84 85 86 86 85 84 85 84 79 76 80 85 89 96 95 88 85 83 84 83 79 76 77 77 78 78 77 77 77 77 78 78 78 80 81 81 79 76 74 72 70 70 71 71 72 72 72 72 73 73 72 72 72 72 72 73 74 74 75 76 76 76 76 76 76 78 79 81 83 85 87 88 89
76 78 80 79 79 79 80 80 80 81 82 82 83 84 85 86 87 86 82 79 82 79 76 81 85 90 97 95 89 88 89 88 86 81 78 77 74 73 74 74 75 75 73 72 73 73 74 76 76 75 72 69 67 66 66 66 66 65 66 65 66 66 66 66 66 66 66 67 67 68 69 70 71 72 72 73 74 74 75 74 75 77 80 83 85 85
76 76 78 79 78 79 79 79 79 80 80 80 82 83 85 86 86 88 86 80 79 77 75 79 85 93 100 96 91 93 95 92 87 81 78 75 73 72 73 74 74 73 71 70 70 70 70 71 70 69 67 65 64 63 62 62 62 61 61 61 61 61 61 60 61 61 62 62 62 63 65 66 67 68 69 70 71 72 73 72 71 72 74 77 80 81
77 76 77 78 79 78 78 78 79 79 79 80 82 83 85 87 86 89 91 88 85 79 74 73 80 94 101 96 93 96 96 92 85 79 76 74 74 74 73 73 72 69 68 68 67 68 68 68 66 64 63 61 60 60 59 60 59 59 58 58 58 59 58 57 57 58 58 58 59 60 61 62 63 65 65 67 68 70 72 72 70 69 70 72 75 77
79 78 78 79 80 80 79 79 80 81 80 81 84 84 85 87 87 89 92 93 90 85 76 69 75 94 102 95 93 96 93 89 83 78 75 74 75 75 73 73 72 69 67 66 66 66 66 67 65 62 60 60 59 58 58 58 58 57 56 56 56 56 56 56 55 55 55 56 57 58 59 59 60 62 63 64 65 66 69 70 69 68 67 69 71 73
82 81 80 80 80 80 80 80 80 82 82 81 83 85 85 86 87 88 91 93 95 93 87 76 77 93 103 98 95 96 93 88 85 80 76 74 75 75 74 73 71 69 68 67 67 66 66 67 66 63 61 59 58 57 56 55 55 55 55 54 54 54 54 54 54 54 54 54 54 55 56 57 57 58 59 61 62 63 65 67 67 67 67 67 68 70
86 85 84 82 81 80 80 80 79 80 81 81 83 85 86 86 88 90 90 91 94 96 95 88 85 92 103 103 99 98 94 89 86 82 79 77 76 73 72 72 69 67 66 66 66 65 64 65 65 64 62 59 57 55 53 53 52 53 53 52 52 52 53 53 53 53 53 53 53 53 53 53 54 55 56 57 58 59 60 62 64 65 66 66 67 68
89 89 88 86 85 83 82 80 79 79 80 80 81 84 86 88 90 93 94 92 94 96 96 92 87 91 100 102 98 95 91 87 84 81 78 77 76 71 69 69 67 64 63 63 64 63 62 62 63 63 61 59 57 54 53 52 51 50 51 50 49 50 50 50 51 51 51 51 52 51 51 51 52 53 53 54 55 56 57 58 60 62 63 64 65 66
93 93 91 89 87 84 82 80 79 78 79 81 83 84 86 88 89 93 95 96 97 99 100 96 89 90 96 96 93 91 87 83 81 79 75 74 72 68 66 64 62 60 59 59 59 59 59 59 60 60 59 57 55 53 52 51 51 50 49 48 47 47 47 48 48 50 50 50 50 50 50 50 50 51 51 52 53 53 54 55 56 58 59 60 62 62
96 97 96 94 91 88 85 84 82 81 82 85 86 86 87 89 90 92 94 95 96 99 103 103 94 89 92 93 91 88 84 80 78 75 73 72 67 63 61 60 58 56 55 55 55 55 56 56 56 56 56 54 53 51 50 50 50 50 49 47 46 45 45 46 46 48 49 48 48 49 49 49 49 49 50 50 51 51 52 52 53 54 55 57 58 59
98 98 99 100 98 97 95 93 91 88 87 88 89 88 89 89 91 94 94 93 94 95 100 105 100 91 89 91 89 85 80 77 73 68 68 69 65 60 57 56 55 53 51 51 51 51 52 52 53 52 52 51 50 48 47 47 48 49 49 47 45 44 44 43 43 44 45 45 45 46 46 46 47 47 47 48 49 49 50 51 51 52 52 53 55 56
99 98 99 101 101 100 99 97 94 91 89 88 89 88 90 91 92 94 95 94 93 92 92 98 103 97 91 90 91 87 79 72 67 64 65 65 62 59 56 53 52 50 48 48 47 48 48 49 49 49 49 49 47 45 44 44 45 47 47 46 44 42 41 40 40 40 41 42 42 43 43 43 43 43 44 45 46 47 48 49 49 49 49 50 51 53
100 99 98 99 99 99 98 97 94 90 89 89 89 88 90 93 93 94 97 97 95 93 89 90 95 96 90 88 90 89 80 69 63 62 64 63 61 58 55 53 52 51 50 48 47 47 47 47 47 47 47 47 45 44 42 42 43 43 44 44 42 40 38 37 37 38 38 39 40 41 41 41 41 41 41 42 43 44 45 46 46 46 46 47 47 48
102 100 99 98 98 98 97 96 93 90 89 90 90 90 91 92 93 95 98 100 100 101 98 95 95 96 94 90 88 87 81 70 63 62 64 65 62 59 57 54 52 51 50 50 49 48 48 48 48 48 48 47 46 45 43 42 41 41 40 39 39 38 37 36 36 36 36 37 38 39 39 39 40 40 40 41 42 43 43 44 44 44 44 44 44 45
104 102 101 99 98 97 97 96 94 91 90 91 91 90 90 92 94 97 98 99 99 101 104 103 101 100 99 94 89 87 81 72 66 64 64 65 62 59 56 54 51 49 48 48 48 48 48 48 47 47 47 47 46 45 44 42 41 39 38 36 35 35 35 36 37 36 36 36 36 37 37 37 38 38 39 40 41 42 43 43 43 43 43 44 44 45
106 105 103 100 98 97 96 96 95 93 92 92 91 91 92 94 96 98 99 98 96 95 96 99 99 97 94 91 89 87 82 73 68 65 62 63 63 58 54 53 50 47 46 46 46 46 46 46 45 44 43 43 43 43 42 41 39 37 36 35 34 34 33 34 36 36 36 35 35 35 35 36 36 37 37 38 39 40 41 41 41 42 42 43 44 45
108 107 105 103 100 99 99 98 97 95 93 94 93 93 95 95 95 99 103 103 102 99 95 94 94 91 86 83 83 85 83 75 70 66 62 62 64 60 54 52 50 47 46 45 45 45 44 44 43 42 41 40 39 39 39 38 37 36 35 34 34 33 33 33 34 34 34 34 34 34 34 35 35 36 37 37 37 37 38 39 40 41 42 42 43 43
109 108 107 106 104 102 102 101 100 98 96 96 96 97 97 97 97 99 103 104 105 106 103 99 95 91 87 83 81 82 82 76 69 66 62 59 62 62 57 53 50 48 46 45 44 44 44 43 42 41 40 39 38 37 36 35 35 35 34 34 34 33 33 33 33 33 32 32 33 33 33 34 34 35 36 36 36 36 37 38 39 40 41 40 40 40
111 111 110 109 107 105 104 104 103 101 100 100 100 100 99 100 100 100 102 102 103 103 103 100 96 94 92 89 84 81 79 75 69 66 63 59 59 59 58 55 52 49 47 45 44 44 45 44 43 41 40 40 39 38 36 35 35 34 33 33 35 34 33 33 33 32 31 32 32 32 32 33 34 35 35 34 34 35 35 36 37 38 38 38 38 38
113 113 113 112 111 109 108 107 106 105 104 104 103 102 102 102 102 101 103 105 105 103 101 99 98 97 94 90 85 81 79 77 71 67 65 62 59 57 55 54 53 50 48 46 45 45 45 45 44 43 42 40 39 38 37 35 34 34 33 32 33 34 34 33 33 32 32 32 32 32 32 33 33 34 33 33 33 34 35 35 35 35 35 35 36 36
114 115 115 115 114 113 112 111 109 108 107 106 105 105 106 105 104 104 105 107 107 105 104 103 101 98 93 86 81 78 78 79 76 71 68 64 60 57 54 52 51 49 47 45 44 43 43 43 43 43 43 42 40 38 37 35 34 33 33 32 32 32 32 32 32 32 33 33 32 32 32 32 32 32 32 32 33 33 33 32 32 32 33 33 34 34
116 117 118 117 117 116 115 114 112 110 109 108 108 109 108 108 108 108 107 108 107 106 105 103 98 94 90 85 79 76 75 76 77 75 71 66 62 59 56 53 50 48 46 45 44 43 42 40 40 40 40 40 39 37 37 36 34 33 33 32 32 32 31 30 30 30 31 32 32 32 31 31 31 30 31 32 32 31 31 31 31 31 31 32 32 32
118 119 120 120 119 118 118 117 115 113 112 111 110 109 109 109 109 108 106 106 105 104 102 99 95 91 89 85 81 77 73 72 74 75 73 70 66 62 59 56 53 49 46 44 44 43 42 40 38 37 37 37 38 36 35 34 33 33 33 32 32 32 31 30 29 29 28 29 29 30 30 31 31 31 30 30 30 30 30 30 30 30 30 30 30 30
119 120 121 122 121 120 120 119 119 117 116 113 111 109 109 109 108 107 105 103 102 101 99 97 95 94 91 88 85 81 75 71 72 74 74 74 71 66 62 58 55 52 49 46 44 43 41 39 37 36 35 35 36 36 35 33 32 31 32 32 31 31 31 30 29 28 27 27 27 29 30 31 31 31 30 30 29 30 30 30 29 29 29 29 28 28
120 121 122 123 123 123 122 121 120 119 117 115 113 111 108 107 107 107 105 102 100 99 99 99 98 97 96 93 89 86 81 77 75 75 75 75 74 70 66 62 58 55 52 50 48 45 43 39 37 36 35 35 36 37 36 35 33 31 31 31 31 30 30 29 28 27 27 27 27 28 29 30 30 30 30 30 29 29 29 28 28 27 27 27 27 27
122 123 124 125 125 125 124 123 122 120 118 115 114 113 110 107 106 107 107 105 103 101 100 101 100 99 97 95 92 89 86 83 80 78 76 74 73 71 68 65 62 58 55 52 49 47 45 43 39 35 34 34 35 36 36 36 34 32 31 31 30 29 28 27 26 27 27 28 28 27 27 27 28 28 29 29 29 28 27 26 25 25 25 25 26 26
124 125 126 126 127 127 127 127 125 123 121 117 114 113 112 110 108 108 109 109 107 104 101 101 101 99 96 95 92 89 87 84 81 79 76 73 71 69 66 64 62 60 57 54 51 49 47 45 41 37 34 32 32 33 34 34 34 32 31 30 30 29 28 27 26 26 27 27 27 26 25 25 25 26 27 27 27 26 25 25 24 24 25 25 26 26
126 127 128 129 129 129 129 130 129 128 125 122 118 116 115 115 114 112 111 111 109 106 103 100 100 98 95 93 89 86 84 82 79 78 77 74 72 69 66 63 61 59 56 54 52 50 49 47 44 41 38 36 34 34 34 34 34 32 31 30 30 29 29 28 27 26 26 26 25 24 24 24 24 25 25 25 24 24 24 23 23 24 24 25 25 25
128 129 130 130 131 131 131 131 130 129 127 125 123 121 119 118 116 115 113 113 111 109 105 101 99 98 95 92 87 83 81 79 77 76 76 75 72 69 66 63 60 58 56 54 52 50 49 47 45 43 41 39 37 36 35 34 34 32 31 30 29 28 29 28 27 26 25 24 24 23 23 23 24 24 24 24 23 23 22 22 22 23 24 23 23 23
129 130 131 131 131 131 131 131 130 130 128 127 125 123 121 119 117 115 115 114 113 112 107 102 99 98 95 91 87 83 79 77 76 75 75 74 72 69 66 63 60 58 56 53 51 49 48 47 46 44 43 40 38 36 35 34 33 31 30 29 28 28 28 28 26 25 24 23 23 22 23 23 24 24 24 23 22 21 21 21 21 21 21 21 20 20
131 131 132 132 131 130 130 131 131 130 128 126 124 122 121 119 117 115 114 114 113 112 109 104 100 98 96 93 89 85 80 77 75 75 75 74 72 70 67 63 61 59 56 54 52 50 49 48 46 45 44 42 40 37 35 34 33 31 30 29 28 28 28 27 26 24 23 22 22 22 22 23 23 23 22 22 21 20 19 19 19 19 19 18 18 17
132 133 133 133 132 131 130 129 129 128 127 126 124 121 119 117 116 114 113 112 111 110 110 107 102 98 96 93 89 86 81 77 74 74 74 73 72 70 67 63 59 58 57 54 52 50 49 47 47 46 45 43 40 38 36 35 34 32 31 30 29 29 28 26 25 24 23 22 22 22 22 22 22 21 21 20 20 19 18 17 17 17 17 17 16 16
134 134 134 134 134 133 131 128 127 127 127 125 123 120 118 115 114 113 112 111 110 108 108 107 104 100 96 92 89 87 83 79 76 74 73 72 71 69 66 62 58 56 55 54 52 51 49 47 46 46 45 43 41 39 38 36 35 33 32 31 29 29 27 25 24 24 23 22 22 21 21 21 20 20 19 18 18 17 17 16 16 16 16 16 15 15
135 136 137 136 136 135 133 130 128 127 126 125 123 121 119 116 114 113 112 111 110 108 106 104 103 100 98 94 90 87 84 81 78 75 73 71 70 69 67 64 60 56 55 53 51 50 49 47 46 45 44 43 42 40 39 37 35 34 32 31 29 27 25 24 24 24 23 22 21 21 20 19 19 18 17 17 16 16 16 15 15 15 15 15 14 13
137 138 139 139 139 138 137 134 132 130 129 127 125 123 121 119 117 115 113 112 111 110 108 104 100 97 96 95 92 87 84 81 79 76 74 73 70 68 67 65 62 58 56 55 53 51 50 48 47 46 44 43 41 40 39 37 35 34 32 30 27 25 24 24 24 23 22 22 21 20 19 18 18 17 16 16 15 15 15 15 14 14 14 14 12 11
137 140 141 141 142 142 141 139 137 134 132 131 128 125 123 120 118 115 114 113 112 111 110 107 102 97 94 93 91 88 84 81 78 76 75 74 72 69 67 65 61 58 56 56 54 52 52 50 48 47 46 43 41 39 37 36 34 32 30 28 26 25 24 24 23 23 22 21 21 20 19 18 17 16 15 15 15 15 14 14 14 14 13 12 11 10
Wind_Direction
305 306 307 309 311 312 313 313 313 313 312 312 311 310 308 307 306 304 304 304 303 302 300 299 299 297 294 293 292 291 290 289 289 288 288 287 286 285 284 283 283 282 281 281 280 279 279 278 277 276 276 275 275 274 273 272 271 269 268 266 264 263 262 262 261 260 260 259 259 258 258 258 257 257 257 257 257 256 257 257 257 258 258 259 259 259
312 313 315 317 318 318 317 316 316 315 314 313 312 312 311 311 310 308 308 307 305 304 302 301 300 297 295 293 292 291 290 289 289 289 289 288 286 285 284 283 283 282 282 281 281 280 280 280 280 280 280 280 280 279 278 276 275 273 271 269 267 265 263 262 261 260 259 259 259 259 258 258 257 256 256 256 256 255 255 255 255 256 256 257 257 258
318 319 320 320 320 319 319 318 318 317 316 315 315 315 314 313 312 310 309 308 306 304 303 302 300 298 295 293 292 291 290 290 290 289 288 287 286 286 286 285 285 284 284 283 283 283 283 284 284 284 284 284 283 282 281 279 277 275 273 270 268 265 263 262 260 259 258 257 257 257 258 257 257 256 255 255 254 254 254 254 254 253 254 254 255 256
320 320 321 321 321 321 321 321 321 321 320 319 317 317 316 315 314 312 310 309 308 306 303 301 300 298 296 294 292 291 290 290 289 288 287 287 287 287 287 287 287 286 285 285 286 286 286 287 287 288 287 286 285 283 281 279 277 275 273 270 267 265 263 261 259 258 257 255 255 255 255 255 256 256 255 254 254 253 253 253 253 252 252 252 252 253
323 323 324 324 324 324 325 325 324 323 322 321 319 319 318 318 317 315 314 312 310 308 305 303 301 300 298 295 292 290 290 289 288 287 287 287 287 287 286 286 286 286 286 287 287 287 288 288 288 288 287 286 285 283 281 279 277 274 272 269 267 265 262 260 259 258 257 255 254 253 253 253 254 254 255 254 254 253 252 252 252 252 251 251 251 251
328 328 328 327 327 328 327 327 326 324 323 323 322 321 321 320 319 317 316 314 312 310 307 305 304 302 300 297 295 293 292 291 291 290 290 289 289 288 287 287 287 287 287 287 287 288 288 288 288 287 286 284 283 281 280 278 276 274 271 269 267 265 263 261 260 259 258 257 256 255 254 253 252 253 253 254 254 253 253 252 252 252 251 251 251 251
332 332 332 331 331 331 330 329 328 327 327 326 325 324 323 322 320 318 317 315 314 311 309 307 306 306 305 301 299 298 296 295 295 294 293 293 292 292 291 290 290 289 288 288 289 290 289 288 287 286 284 283 281 280 278 276 274 273 272 271 269 268 266 264 263 261 260 260 259 258 256 255 254 253 253 253 254 254 253 252 252 252 252 251 251 251
336 336 336 335 334 333 333 332 330 329 329 327 327 325 323 322 320 319 317 316 315 313 310 308 307 308 307 303 301 300 299 298 298 297 297 296 295 295 294 293 291 290 289 290 290 289 287 285 284 282 281 280 279 278 278 277 276 275 275 274 273 272 270 269 267 265 264 262 261 261 259 258 256 255 254 254 253 253 253 253 252 252 252 251 251 251
340 339 338 337 336 335 335 333 332 330 329 328 327 325 323 322 320 319 318 316 315 312 309 307 307 309 308 305 303 302 300 300 300 300 299 297 296 296 294 292 290 289 289 290 288 286 284 282 280 278 277 276 277 277 278 277 277 277 277 276 275 274 273 272 271 269 267 266 264 263 262 260 258 257 256 255 254 254 254 253 252 252 251 251 251 251
342 341 340 338 337 336 335 334 332 331 329 328 326 325 323 321 319 317 317 316 315 312 308 307 309 310 310 307 305 304 302 302 302 301 299 299 298 298 296 293 291 290 291 291 289 287 285 282 279 278 276 276 276 276 276 276 276 276 276 276 276 275 274 274 274 273 272 271 269 267 265 263 262 260 258 257 256 255 255 254 254 253 252 251 251 251
343 342 340 338 338 337 336 334 332 330 328 327 325 324 322 320 319 318 317 318 316 314 310 308 310 310 309 308 306 304 304 305 305 303 303 303 303 302 300 297 295 295 296 294 291 287 285 282 281 280 279 279 277 276 275 276 276 276 276 276 276 276 276 276 275 275 274 273 272 270 268 266 265 263 261 260 258 257 256 255 255 254 253 252 251 251
344 343 341 339 338 337 335 333 331 329 328 326 325 325 323 322 321 319 319 319 317 315 311 309 310 309 307 307 307 307 308 308 307 306 306 307 306 305 303 300 300 300 297 293 288 284 282 281 280 281 281 280 280 279 279 278 278 278 277 277 276 276 276 276 275 274 273 272 272 271 269 267 266 264 263 262 261 259 257 256 255 254 253 253 252 251
344 343 342 340 338 337 336 334 332 331 329 328 327 326 325 324 323 321 320 319 318 317 314 312 312 311 308 308 309 310 311 310 309 309 310 311 310 307 304 302 301 299 294 289 285 282 280 280 279 279 279 279 279 279 280 280 280 280 280 280 279 278 277 276 275 274 272 271 271 271 270 269 267 265 264 263 262 261 259 257 256 255 254 253 252 252
344 343 342 341 339 338 338 337 335 333 332 329 328 326 327 327 327 326 324 323 323 323 319 316 314 314 312 311 312 314 314 313 312 313 314 314 311 307 305 304 303 300 296 292 289 289 288 286 284 282 282 282 281 281 280 280 280 280 280 280 280 279 278 277 276 275 274 272 271 270 269 269 268 267 265 263 261 261 260 259 258 257 256 254 253 252
345 345 344 342 340 340 340 338 336 334 333 331 329 328 329 328 328 329 328 327 327 327 325 322 320 319 316 316 319 320 319 318 317 318 319 318 314 311 310 308 304 300 296 294 293 293 293 291 289 288 288 287 286 285 283 282 281 281 280 279 279 278 277 277 276 275 274 272 271 270 269 268 268 268 267 265 262 260 259 258 258 257 256 255 254 252
347 346 345 344 342 341 341 339 336 334 333 332 330 329 329 329 329 329 329 327 326 328 331 328 326 323 319 320 324 324 323 323 323 324 324 320 316 312 309 305 299 294 292 293 293 294 293 292 292 292 292 291 290 289 287 286 284 283 281 280 279 278 278 277 276 274 273 272 271 270 269 268 268 267 267 266 264 262 259 258 257 256 255 255 254 253
348 346 345 344 342 341 341 339 337 334 332 332 330 329 330 330 329 328 328 328 327 331 335 332 329 325 321 324 328 328 327 327 327 327 324 319 314 310 306 302 297 295 297 297 296 295 293 293 293 294 294 294 293 292 290 289 287 285 284 283 281 280 279 277 276 275 273 272 271 270 269 268 268 268 267 267 266 264 262 260 258 256 256 255 255 255
349 346 344 343 342 341 341 339 338 334 332 331 330 330 331 331 330 329 329 332 332 336 338 335 333 329 325 328 332 331 330 329 328 327 323 319 316 313 309 304 301 302 303 302 300 298 296 295 295 295 294 294 294 294 292 290 289 287 286 284 283 282 280 278 276 275 273 272 271 270 269 268 268 267 267 267 266 266 265 263 260 258 256 256 255 256
350 348 345 344 343 342 341 339 338 337 334 333 333 333 332 332 333 331 330 333 336 339 340 338 337 332 328 331 333 331 330 328 328 328 324 322 319 314 309 306 305 307 307 305 303 302 300 299 298 298 297 297 297 296 294 292 291 289 287 286 284 283 282 280 277 275 274 273 272 270 269 268 268 267 266 265 265 265 265 264 262 259 257 255 255 255
351 349 348 346 344 343 342 341 340 339 338 337 336 336 335 334 335 333 332 333 335 340 341 340 343 337 330 332 333 330 329 328 328 328 326 325 320 314 312 311 312 313 311 308 307 305 304 303 302 302 301 301 300 299 297 294 292 291 289 287 285 284 283 281 279 276 274 273 272 271 270 269 268 267 266 265 264 264 264 264 263 261 258 256 255 254
352 352 350 349 346 345 344 343 341 340 340 338 337 337 337 337 338 336 334 334 335 340 342 342 346 340 331 332 334 331 330 330 330 329 328 327 322 317 317 316 315 315 314 312 310 309 308 306 305 305 303 302 301 299 297 294 292 291 289 288 286 285 283 282 280 278 276 275 273 272 272 271 270 268 267 266 265 264 263 263 263 262 260 258 256 254
354 353 353 352 350 348 346 344 343 341 340 339 338 339 340 339 340 338 337 338 338 339 341 342 346 341 332 332 334 331 331 332 332 332 331 328 322 320 320 317 316 316 314 312 310 310 308 307 306 305 304 304 302 300 298 295 293 291 289 288 287 285 284 283 282 280 279 277 276 274 273 272 270 269 267 266 265 264 263 263 263 262 261 260 258 256
355 355 354 354 352 350 349 347 345 342 341 341 341 341 341 340 340 339 339 342 341 339 339 341 345 342 334 332 332 330 331 333 333 333 332 327 322 322 321 317 315 315 313 310 309 308 307 306 306 305 305 305 304 302 300 297 294 292 290 288 287 285 284 284 283 282 280 278 277 275 274 272 271 269 268 267 265 264 263 262 262 262 262 261 260 259
356 355 355 355 354 352 350 348 347 344 342 343 343 344 342 341 341 340 339 343 343 340 338 340 345 343 335 332 331 331 333 334 334 334 331 325 322 322 320 316 315 314 311 309 308 308 307 306 306 305 305 305 305 303 302 300 297 295 293 291 289 287 286 284 283 282 280 279 278 276 274 272 271 269 268 267 266 264 263 262 261 261 261 261 261 260
358 356 355 355 355 353 352 351 350 348 346 345 345 346 345 343 342 341 342 345 346 342 338 338 343 343 337 333 332 332 334 335 336 335 330 324 323 322 320 318 317 315 312 311 309 308 307 306 306 306 305 305 305 304 303 301 299 298 296 295 293 291 289 287 285 283 282 280 279 277 275 272 271 269 267 266 265 264 263 261 260 259 259 260 260 260
359 358 356 355 355 354 354 354 353 351 349 346 345 346 346 345 344 342 343 347 348 345 341 337 339 343 341 336 333 333 336 337 336 335 328 324 324 324 323 322 319 316 314 312 311 310 308 307 307 306 306 306 305 305 304 302 300 299 299 298 297 295 293 290 288 286 284 282 280 278 276 273 271 269 267 266 265 264 263 261 260 258 258 258 258 258
0 360 358 356 356 355 355 354 353 351 349 347 346 345 345 346 345 341 342 346 347 346 344 340 340 343 342 338 335 335 337 337 337 335 329 326 328 327 327 325 322 319 318 316 315 314 312 311 310 309 308 307 307 307 306 304 303 302 302 301 300 299 296 293 289 287 285 284 282 280 277 274 271 269 267 266 265 264 263 262 261 260 259 258 258 257
2 1 360 358 356 356 355 354 353 351 349 347 346 346 345 346 346 341 341 345 346 346 347 345 343 343 342 340 337 335 335 338 340 338 333 330 331 331 330 329 327 325 323 322 321 319 317 316 314 313 311 310 310 310 308 307 305 304 304 303 303 301 297 293 290 287 285 283 281 279 278 276 273 271 269 267 265 264 264 263 262 262 261 259 258 258
3 2 1 359 357 356 355 354 353 351 349 348 347 347 345 344 345 343 343 346 346 345 346 347 347 346 344 342 339 335 335 339 343 342 338 335 334 334 334 332 331 329 327 326 325 323 322 320 318 318 317 316 315 314 312 310 308 306 305 304 303 302 299 295 291 288 285 283 281 279 278 276 274 273 271 270 268 267 266 266 265 264 263 262 261 261
3 2 2 0 358 356 355 353 353 352 350 349 348 347 344 344 346 345 345 348 348 346 346 347 349 348 345 343 341 338 336 340 345 345 343 339 336 336 336 335 333 331 328 327 327 325 324 322 321 320 319 318 317 316 315 313 311 309 307 305 304 302 300 297 293 290 287 285 283 282 279 277 274 272 271 271 270 271 271 270 270 269 268 267 265 264
4 3 2 1 359 357 355 354 354 353 351 350 349 348 346 347 347 345 345 349 350 350 350 349 350 349 345 343 344 340 337 340 345 345 344 343 340 338 338 337 334 333 331 329 329 327 325 323 321 319 318 317 316 315 315 314 313 312 310 307 305 302 299 297 295 293 291 289 288 285 282 280 277 274 272 270 269 270 271 271 271 270 269 268 268 267
4 4 3 2 360 358 357 356 355 354 353 351 350 350 350 349 349 346 346 349 350 352 353 352 350 348 345 345 347 343 339 341 345 345 344 345 342 339 339 338 336 335 334 333 332 330 327 324 322 320 318 317 316 315 315 315 314 313 311 308 305 302 299 296 295 294 293 293 291 288 285 282 280 277 274 272 271 270 269 269 269 268 268 267 268 269
5 4 3 2 1 359 358 357 356 355 354 352 352 352 351 351 351 349 349 350 351 350 351 351 350 349 347 349 351 348 341 340 344 346 345 345 344 341 339 338 337 337 337 335 334 332 329 327 325 323 321 320 319 318 317 317 315 314 313 309 306 303 300 297 296 295 294 293 291 289 287 285 282 280 278 277 277 275 272 271 270 270 270 270 270 270
5 4 4 3 2 0 359 359 358 356 355 354 353 353 353 353 353 351 350 352 352 351 350 350 351 351 350 351 354 352 343 339 343 348 347 347 345 343 341 340 339 339 338 337 335 334 332 330 327 326 325 323 323 322 321 320 317 316 314 311 308 306 303 301 298 296 294 291 290 289 287 284 283 282 282 282 281 279 276 274 273 272 273 273 272 270
5 5 4 3 2 1 360 360 359 358 356 355 354 354 354 354 354 352 351 351 352 351 350 352 353 353 351 351 353 354 348 342 344 348 349 349 347 344 344 343 341 341 340 339 338 336 334 332 329 328 327 326 325 325 323 321 319 316 314 312 309 307 306 304 301 298 294 291 289 288 286 285 284 284 285 284 282 279 277 276 275 275 274 273 271 269
6 5 4 4 3 1 0 0 360 359 358 356 355 355 355 354 355 355 353 352 352 352 352 353 354 353 351 350 352 355 353 346 345 348 350 350 348 346 345 347 345 343 341 340 339 339 337 334 331 329 328 327 327 325 323 321 319 317 315 313 310 308 306 304 301 299 296 295 293 292 290 289 288 287 287 285 283 281 281 281 280 278 276 274 273 272
6 5 4 4 3 2 1 0 0 359 358 357 356 356 355 355 355 356 355 353 353 353 353 353 354 352 350 349 352 356 357 352 347 347 349 350 350 348 347 348 348 346 343 342 341 340 339 335 331 329 328 326 325 324 322 321 320 319 317 316 313 310 307 304 301 298 298 298 298 297 295 293 291 289 288 287 287 288 288 286 284 281 279 278 277 276
7 6 5 4 4 2 1 1 0 360 359 359 358 356 355 355 355 355 354 354 353 353 353 353 354 353 351 350 352 355 357 356 351 348 349 350 351 351 349 348 348 347 345 344 343 341 340 336 332 330 327 325 324 323 322 321 321 320 318 316 314 312 309 306 304 302 301 300 299 298 295 293 292 291 291 291 292 292 289 287 285 284 282 280 279 278
7 7 5 4 4 3 2 1 0 0 360 359 358 357 356 355 354 353 354 354 353 354 354 354 355 354 352 352 353 353 355 357 354 351 351 352 351 352 351 350 349 348 346 346 344 343 341 337 333 329 326 324 322 322 322 322 322 322 319 317 315 313 311 309 308 306 303 300 298 295 293 293 294 295 295 295 293 291 289 288 287 286 284 283 281 280
8 7 6 5 4 3 2 1 1 1 0 359 357 357 356 355 353 352 353 355 356 356 356 355 356 356 354 353 354 353 353 355 355 354 354 353 352 351 351 350 349 349 348 346 345 344 342 339 335 330 328 326 324 324 324 324 324 323 321 317 314 313 312 311 310 307 302 298 296 295 295 297 298 298 298 296 293 292 291 290 289 289 288 286 285 283
9 8 7 6 5 4 2 2 1 1 0 359 357 356 356 355 354 353 354 356 357 358 358 357 357 357 356 354 354 354 354 354 355 354 354 354 353 352 351 350 349 349 348 346 345 344 342 340 337 333 330 328 326 325 324 324 324 324 322 318 315 314 314 312 310 306 302 299 300 301 301 302 302 301 299 298 298 297 296 295 295 295 293 291 288 287
9 8 7 6 5 4 3 2 1 1 0 359 358 356 355 356 356 356 356 356 357 358 359 358 357 358 357 355 354 355 354 354 354 353 352 354 354 353 352 351 349 348 347 346 346 345 343 341 339 336 333 330 327 325 324 322 322 323 322 320 318 316 315 313 311 307 305 305 307 308 307 306 304 303 302 303 303 303 301 301 301 299 296 293 291 290
9 8 7 6 5 5 4 2 1 1 360 359 358 357 356 356 356 357 356 356 357 357 358 359 358 358 357 356 355 355 354 353 353 352 351 352 353 354 353 352 349 348 347 346 346 346 344 343 341 339 337 335 332 330 327 324 324 324 324 322 320 318 316 315 314 312 312 313 313 312 310 308 307 306 306 308 308 306 305 304 302 299 295 292 291 290
9 8 7 7 6 5 5 3 2 1 360 359 359 358 357 357 357 356 356 357 357 356 357 358 359 358 358 356 355 355 355 354 353 353 352 352 352 353 354 353 350 348 348 347 347 346 345 344 342 340 340 338 336 333 330 328 326 326 325 323 321 319 317 317 318 318 318 317 315 314 312 310 309 309 310 310 309 308 307 304 300 295 292 289 288 286
9 8 8 7 6 6 5 4 2 1 0 360 359 358 357 357 357 357 357 357 356 356 356 357 358 358 357 356 355 355 355 355 354 353 352 351 352 353 354 353 351 348 348 348 347 347 347 345 343 341 340 339 337 335 332 330 329 328 326 324 322 321 320 322 323 322 319 316 314 313 312 311 311 311 311 311 310 309 307 302 297 292 289 287 285 284
10 9 8 7 7 6 6 4 3 1 0 0 360 359 358 357 357 357 357 357 357 356 355 356 358 358 357 356 355 355 355 356 355 354 353 352 351 352 353 354 352 349 348 348 348 348 348 346 344 343 342 340 338 336 334 333 332 331 329 327 326 326 326 327 327 323 319 316 315 314 314 314 314 313 312 312 313 311 306 301 296 293 292 290 289 287
10 10 9 7 6 6 6 6 4 2 1 1 0 360 359 358 357 357 357 357 357 356 355 355 357 358 357 356 355 354 354 356 356 355 354 352 351 351 352 354 353 350 348 348 348 349 349 347 345 344 342 341 339 338 337 336 335 334 332 331 331 332 333 331 327 323 320 320 320 319 319 318 316 315 315 316 315 311 307 303 300 298 297 296 293 290
10 10 9 8 7 6 6 6 5 3 2 1 1 0 359 358 358 357 357 357 357 357 356 355 356 356 356 356 355 355 354 355 356 356 355 353 352 351 351 353 354 352 349 348 348 349 349 348 346 344 343 342 341 340 340 339 338 336 335 336 337 338 336 331 326 324 325 327 326 324 323 322 319 320 321 320 317 312 308 306 305 303 301 297 294 290
10 10 10 9 8 7 6 5 5 4 3 2 1 1 360 359 359 358 358 358 358 357 357 356 355 356 356 356 356 355 355 354 355 355 355 354 353 352 351 352 354 353 351 349 349 349 349 349 348 346 346 344 343 343 342 342 341 340 340 341 342 340 335 329 327 329 331 331 330 329 327 325 324 325 325 322 317 313 311 310 308 306 301 297 293 291
10 10 10 9 8 7 6 5 5 4 3 2 1 1 0 360 359 359 359 358 358 357 357 356 356 357 357 356 355 355 355 354 354 354 354 354 354 353 352 352 354 354 352 350 350 350 349 349 349 348 347 346 345 345 344 343 342 343 343 344 343 339 333 331 332 335 335 334 333 332 331 329 329 328 326 323 319 316 314 313 311 306 301 298 295 295
10 9 9 9 9 8 7 6 5 5 4 3 2 1 1 0 360 359 359 359 359 358 356 355 356 358 359 358 356 355 355 354 354 354 354 354 354 353 353 352 354 356 354 351 350 351 350 350 349 348 347 347 347 347 346 345 344 345 345 344 341 336 334 336 339 339 338 337 336 335 334 333 332 329 327 325 322 319 316 314 312 308 303 302 303 302